CAPE
916 907 730 748 748 386 111 7 2 0 0 0 0 0 0 0 0 1 1 2 1 3
227 139 29 26 2 5 4 0 0 0 0 0 0 0 0 0 0 0 2 5 4 3
2 1 3 2 0 7 1 0 0 0 0 0 0 0 0 1 1 0 1 4 1 0
5 7 8 3 5 0 0 0 0 0 0 0 2 0 0 1 2 2 3 1 1 1
2 6 9 4 1 1 0 0 0 0 0 0 0 0 1 1 0 1 4 0 2 4
1 0 1 0 0 0 0 0 0 0 0 0 2 0 0 0 2 3 3 1 0 0
0 0 0 0 0 0 0 0 0 0 0 0 0 0 0 0 1 2 0 0 1 1
0 0 0 0 0 0 0 0 0 0 1 0 0 2 0 0 2 2 1 0 0 0
0 0 0 0 1 2 3 2 2 2 2 0 1 2 2 0 0 0 1 1 2 0
0 0 1 1 1 2 2 1 0 5 4 1 2 0 1 0 0 0 0 0 4 4
1 0 0 0 0 0 0 0 0 0 0 3 2 0 2 1 0 1 0 0 0 0
1 0 0 0 0 0 0 0 0 0 0 0 4 5 1 0 0 0 0 2 4 3
0 0 0 0 0 0 0 0 0 0 0 1 1 6 3 3 0 0 2 3 0 0
1 0 2 0 0 0 0 0 0 0 2 0 1 1 5 3 5 5 2 2 0 0
CIN
-455 -409 -399 -347 -334 -453 -627 -281 0 0 0 0 0 0 0 0 0 0 0 0 0 0
-628 -652 -692 -629 -42 0 0 0 0 0 0 0 0 0 0 0 0 0 0 0 0 0
0 0 0 0 0 0 0 0 0 0 0 0 0 0 0 0 -1 0 0 0 0 0
0 0 0 0 0 0 0 0 0 0 0 0 0 0 0 0 0 0 0 0 0 0
0 0 0 0 0 0 0 0 0 0 0 0 0 0 0 0 0 0 0 0 0 0
0 0 0 0 0 0 0 0 0 0 0 0 0 0 0 0 0 0 0 0 0 0
0 0 0 0 0 0 0 0 0 0 0 0 0 0 0 0 0 0 0 0 0 0
0 0 0 0 0 0 0 0 0 0 0 0 0 0 0 -1 -3 -2 0 0 0 0
0 0 0 0 0 0 0 0 0 0 0 0 0 0 0 0 0 0 0 0 0 0
0 0 0 0 0 0 0 0 0 0 0 0 0 0 0 0 0 0 0 0 0 0
0 0 0 0 0 0 0 0 0 0 0 0 -1 0 0 0 0 0 0 0 0 0
0 0 0 0 0 0 0 0 0 0 0 0 0 0 0 0 0 0 0 0 -3 -1
0 0 0 0 0 0 0 0 0 0 0 0 0 0 0 0 0 0 0 -1 0 0
0 0 0 0 0 0 0 0 0 0 0 0 0 0 0 0 0 0 0 0 0 0
Wind_Speed
7 4 3 3 6 7 8 9 11 12 10 9 8 7 6 6 5 6 5 8 7 4
9 10 8 8 8 8 11 9 12 13 9 9 9 9 7 7 7 8 8 8 8 7
11 11 11 11 13 13 11 12 12 10 9 9 9 8 6 8 8 9 7 6 8 8
15 12 12 14 12 15 11 11 10 10 10 9 9 8 9 11 10 9 8 8 10 11
12 12 13 13 14 11 13 11 10 10 12 10 11 9 11 10 9 10 10 11 10 11
11 10 11 13 12 13 11 11 12 13 13 12 10 9 11 10 9 10 10 10 9 10
12 9 11 10 12 12 12 13 13 13 12 10 9 9 10 8 9 9 7 6 6 8
9 10 12 12 12 12 13 12 12 11 10 10 11 9 9 7 7 6 6 4 5 5
11 12 11 12 11 11 13 12 8 11 8 11 9 18 19 12 8 9 9 9 8 6
13 14 12 10 11 12 13 13 13 8 8 10 10 17 20 17 9 9 9 9 8 8
7 13 14 11 12 13 13 11 9 8 7 8 9 17 21 16 9 9 10 9 10 10
8 10 13 13 13 12 10 9 8 6 6 9 9 17 20 15 9 10 10 8 9 11
11 14 12 13 13 9 9 7 4 6 10 15 8 21 22 17 8 10 9 9 7 10
12 14 12 11 12 10 8 8 8 10 9 12 15 14 21 21 10 10 9 9 8 8
Wind_Direction
134 139 110 113 136 110 108 100 83 72 60 48 44 41 34 46 37 29 27 26 14 348
76 85 89 88 88 93 82 73 73 76 72 65 50 43 45 47 34 42 30 21 24 12
68 74 78 84 85 70 70 75 73 74 71 60 56 50 54 59 43 48 38 28 30 22
42 55 65 62 60 71 62 61 68 70 67 61 61 56 58 58 49 51 50 33 33 24
55 47 64 71 61 68 70 62 62 62 62 56 53 43 64 62 59 51 46 40 33 23
70 74 67 73 81 73 70 63 60 60 56 51 46 50 57 57 56 56 46 43 35 26
89 83 80 77 79 84 79 68 58 55 53 42 35 33 53 54 56 55 48 43 34 32
96 92 94 83 80 79 75 77 73 64 56 46 32 17 12 360 30 44 35 32 21 10
103 88 80 90 94 89 92 80 81 73 59 57 38 21 20 15 24 29 23 6 4 359
105 100 93 75 74 74 72 68 58 56 57 61 43 29 25 26 23 25 13 8 356 357
74 94 95 84 77 68 65 68 61 51 34 55 48 34 28 19 13 19 1 359 353 349
92 90 88 85 71 70 75 68 60 51 47 46 43 30 26 19 14 5 350 346 340 342
81 71 63 76 73 70 67 63 52 50 40 39 27 30 22 11 357 355 339 331 317 305
77 78 75 59 63 61 53 48 46 49 45 44 29 15 13 7 359 348 336 333 330 326